,,,PA_Meas_PMT16A,,PR_Meas_QMR101_102,,RH_Meas_QMH101,,SR_Meas_QMS101,,TA_Meas_QMH101,,GenWind,,GenWind,
date,time,status,PA,status,PR,status,RH,status,SR,status,TA,status,DirAvg,status,SpdAvg,
2011-06-08, 00:00:04,VALID,1003.78,VALID,0,INVALID,163.693,VALID,0,VALID,24.9885,VALID,357,VALID,0.302344,
2011-06-08, 00:01:04,VALID,1003.72,VALID,0,INVALID,163.662,VALID,0,VALID,24.9866,VALID,357,VALID,0.234375,
2011-06-08, 00:02:04,VALID,1003.71,VALID,0,INVALID,163.662,VALID,0,VALID,24.9866,VALID,357,VALID,0.279297,
2011-06-08, 00:03:04,VALID,1003.7,VALID,0,INVALID,163.639,VALID,0,VALID,24.9885,VALID,357,VALID,0.591016,
2011-06-08, 00:04:04,VALID,1003.65,VALID,0,INVALID,163.678,VALID,0,VALID,24.9671,VALID,357,VALID,0.767578,
2011-06-08, 00:05:04,VALID,1003.62,VALID,0,INVALID,163.67,VALID,0,VALID,24.969,VALID,357,VALID,0.489844,
2011-06-08, 00:06:04,VALID,1003.64,VALID,0,INVALID,163.67,VALID,0,VALID,24.9671,VALID,357,VALID,0.462891,
2011-06-08, 00:07:04,VALID,1003.63,VALID,0,INVALID,163.624,VALID,0,VALID,24.9495,VALID,357,VALID,0.508203,
2011-06-08, 00:08:04,VALID,1003.58,VALID,0,INVALID,163.67,VALID,0,VALID,24.9087,VALID,357,VALID,0.426953,
2011-06-08, 00:09:04,VALID,1003.56,VALID,0,INVALID,163.678,VALID,0,VALID,24.9087,VALID,357,VALID,0.345703,
2011-06-08, 00:10:04,VALID,1003.54,VALID,0,INVALID,163.678,VALID,0,VALID,24.9476,VALID,357,VALID,0.338281,
2011-06-08, 00:11:04,VALID,1003.5,VALID,0,INVALID,163.693,VALID,0,VALID,24.969,VALID,357,VALID,0.255469,
2011-06-08, 00:12:04,VALID,1003.48,VALID,0,INVALID,163.67,VALID,0,VALID,24.9476,VALID,357,VALID,0.331641,
2011-06-08, 00:13:04,VALID,1003.47,VALID,0,INVALID,163.678,VALID,0,VALID,24.969,VALID,357,VALID,0.277344,
2011-06-08, 00:14:04,VALID,1003.46,VALID,0,INVALID,163.685,VALID,0,VALID,24.9495,VALID,357,VALID,0.385547,
2011-06-08, 00:15:04,VALID,1003.46,VALID,0,INVALID,163.662,VALID,0,VALID,24.93,VALID,357,VALID,0.407422,
2011-06-08, 00:16:04,VALID,1003.44,VALID,0,INVALID,163.67,VALID,0,VALID,24.9106,VALID,357,VALID,0.334766,
2011-06-08, 00:17:04,VALID,1003.43,VALID,0,INVALID,163.67,VALID,0,VALID,24.8503,VALID,357,VALID,0.219531,
2011-06-08, 00:18:04,VALID,1003.45,VALID,0,INVALID,163.685,VALID,0,VALID,24.8503,VALID,357,VALID,0.151953,
2011-06-08, 00:19:04,VALID,1003.42,VALID,0,INVALID,163.678,VALID,0,VALID,24.8716,VALID,357,VALID,0.0945313,
2011-06-08, 00:20:04,VALID,1003.41,VALID,0,INVALID,163.67,VALID,0,VALID,24.8503,VALID,357,VALID,0.286719,
2011-06-08, 00:21:04,VALID,1003.41,VALID,0,INVALID,163.693,VALID,0,VALID,24.8327,VALID,357,VALID,0.297656,
2011-06-08, 00:22:04,VALID,1003.38,VALID,0,INVALID,163.685,VALID,0,VALID,24.8132,VALID,357,VALID,0.426953,
2011-06-08, 00:23:04,VALID,1003.39,VALID,0,INVALID,163.647,VALID,0,VALID,24.7937,VALID,357,VALID,0.428516,
2011-06-08, 00:24:04,VALID,1003.4,VALID,0,INVALID,163.708,VALID,0,VALID,24.7724,VALID,357,VALID,0.461719,
2011-06-08, 00:25:04,VALID,1003.44,VALID,0,INVALID,163.678,VALID,0,VALID,24.7529,VALID,357,VALID,0.399219,
2011-06-08, 00:26:04,VALID,1003.43,VALID,0,INVALID,163.708,VALID,0,VALID,24.7743,VALID,357,VALID,0.298438,
2011-06-08, 00:27:04,VALID,1003.43,VALID,0,INVALID,163.678,VALID,0,VALID,24.7529,VALID,357,VALID,0.309375,
2011-06-08, 00:28:04,VALID,1003.43,VALID,0,INVALID,163.693,VALID,0,VALID,24.7529,VALID,357,VALID,0.373828,
2011-06-08, 00:29:04,VALID,1003.43,VALID,0,INVALID,163.678,VALID,0,VALID,24.7743,VALID,357,VALID,0.342969,
2011-06-08, 00:30:04,VALID,1003.44,VALID,0,INVALID,163.67,VALID,0,VALID,24.7335,VALID,357,VALID,0.462891,
2011-06-08, 00:31:04,VALID,1003.42,VALID,0,INVALID,163.701,VALID,0,VALID,24.7529,VALID,357,VALID,0.642187,
2011-06-08, 00:32:04,VALID,1003.41,VALID,0,INVALID,163.639,VALID,0,VALID,24.7529,VALID,357,VALID,0.559766,
2011-06-08, 00:33:04,VALID,1003.43,VALID,0,INVALID,163.693,VALID,0,VALID,24.7761,VALID,357,VALID,0.551953,
2011-06-08, 00:34:04,VALID,1003.42,VALID,0,INVALID,163.685,VALID,0,VALID,24.7335,VALID,357,VALID,0.425,
2011-06-08, 00:35:04,VALID,1003.45,VALID,0,INVALID,163.655,VALID,0,VALID,24.7335,VALID,357,VALID,0.29375,
2011-06-08, 00:36:04,VALID,1003.46,VALID,0,INVALID,163.708,VALID,0,VALID,24.7529,VALID,357,VALID,0.297266,
2011-06-08, 00:37:04,VALID,1003.45,VALID,0,INVALID,163.716,VALID,0,VALID,24.7724,VALID,357,VALID,0.233203,
2011-06-08, 00:38:04,VALID,1003.44,VALID,0,INVALID,163.685,VALID,0,VALID,24.8327,VALID,357,VALID,0.165625,
2011-06-08, 00:39:04,VALID,1003.44,VALID,0,INVALID,163.678,VALID,0,VALID,24.8113,VALID,357,VALID,0,
2011-06-08, 00:40:04,VALID,1003.45,VALID,0,INVALID,163.685,VALID,0,VALID,24.7919,VALID,357,VALID,0,
2011-06-08, 00:41:04,VALID,1003.43,VALID,0,INVALID,163.67,VALID,0,VALID,24.7937,VALID,357,VALID,0.225781,
2011-06-08, 00:42:04,VALID,1003.44,VALID,0,INVALID,163.693,VALID,0,VALID,24.7743,VALID,357,VALID,0.364062,
2011-06-08, 00:43:04,VALID,1003.45,VALID,0,INVALID,163.693,VALID,0,VALID,24.7548,VALID,357,VALID,0.341016,
2011-06-08, 00:44:04,VALID,1003.43,VALID,0,INVALID,163.685,VALID,0,VALID,24.6945,VALID,357,VALID,0.280859,
2011-06-08, 00:45:04,VALID,1003.4,VALID,0,INVALID,163.678,VALID,0,VALID,24.6945,VALID,357,VALID,0.194531,
2011-06-08, 00:46:04,VALID,1003.37,VALID,0,INVALID,163.685,VALID,0,VALID,24.675,VALID,357,VALID,0.266797,
2011-06-08, 00:47:04,VALID,1003.33,VALID,0,INVALID,163.701,VALID,0,VALID,24.6361,VALID,357,VALID,0.264062,
2011-06-08, 00:48:04,VALID,1003.29,VALID,0,INVALID,163.685,VALID,0,VALID,24.6361,VALID,357,VALID,0,
2011-06-08, 00:49:04,VALID,1003.25,VALID,0,INVALID,163.678,VALID,0,VALID,24.6361,VALID,357,VALID,0,
2011-06-08, 00:50:04,VALID,1003.22,VALID,0,INVALID,163.67,VALID,0,VALID,24.6574,VALID,357,VALID,0.117188,
2011-06-08, 00:51:04,VALID,1003.19,VALID,0,INVALID,163.685,VALID,0,VALID,24.6166,VALID,357,VALID,0,
2011-06-08, 00:52:04,VALID,1003.18,VALID,0,INVALID,163.662,VALID,0,VALID,24.638,VALID,357,VALID,0,
2011-06-08, 00:53:04,VALID,1003.17,VALID,0,INVALID,163.701,VALID,0,VALID,24.6166,VALID,357,VALID,0.090625,
2011-06-08, 00:54:04,VALID,1003.14,VALID,0,INVALID,163.693,VALID,0,VALID,24.5972,VALID,357,VALID,0.159375,
2011-06-08, 00:55:04,VALID,1003.11,VALID,0,INVALID,163.685,VALID,0,VALID,24.599,VALID,357,VALID,0.252734,
2011-06-08, 00:56:04,VALID,1003.1,VALID,0,INVALID,163.693,VALID,0,VALID,24.5582,VALID,357,VALID,0.059375,
2011-06-08, 00:57:04,VALID,1003.05,VALID,0,INVALID,163.67,VALID,0,VALID,24.5777,VALID,357,VALID,0,
2011-06-08, 00:58:04,VALID,1003.03,VALID,0,INVALID,163.693,VALID,0,VALID,24.5972,VALID,357,VALID,0,
2011-06-08, 00:59:04,VALID,1003,VALID,0,INVALID,163.67,VALID,0,VALID,24.6166,VALID,357,VALID,0,
2011-06-08, 01:00:04,VALID,1002.97,VALID,0,INVALID,163.685,VALID,0,VALID,24.6361,VALID,357,VALID,0,
2011-06-08, 01:01:04,VALID,1002.95,VALID,0,INVALID,163.708,VALID,0,VALID,24.5972,VALID,357,VALID,0.271875,
2011-06-08, 01:02:04,VALID,1002.93,VALID,0,INVALID,163.708,VALID,0,VALID,24.6185,VALID,357,VALID,0.28125,
2011-06-08, 01:03:04,VALID,1002.91,VALID,0,INVALID,163.685,VALID,0,VALID,24.638,VALID,357,VALID,0.319922,
2011-06-08, 01:04:04,VALID,1002.88,VALID,0,INVALID,163.678,VALID,0,VALID,24.6166,VALID,357,VALID,0.246875,
2011-06-08, 01:05:04,VALID,1002.89,VALID,0,INVALID,163.708,VALID,0,VALID,24.5777,VALID,357,VALID,0.258594,
2011-06-08, 01:06:04,VALID,1002.89,VALID,0,INVALID,163.685,VALID,0,VALID,24.5601,VALID,357,VALID,0.227734,
2011-06-08, 01:07:04,VALID,1002.87,VALID,0,INVALID,163.693,VALID,0,VALID,24.5193,VALID,357,VALID,0.298047,
2011-06-08, 01:08:04,VALID,1002.88,VALID,0,INVALID,163.693,VALID,0,VALID,24.5406,VALID,357,VALID,0.416797,
2011-06-08, 01:09:04,VALID,1002.89,VALID,0,INVALID,163.678,VALID,0,VALID,24.5193,VALID,357,VALID,0.382422,
2011-06-08, 01:10:04,VALID,1002.86,VALID,0,INVALID,163.723,VALID,0,VALID,24.5193,VALID,357,VALID,0.414453,
2011-06-08, 01:11:04,VALID,1002.87,VALID,0,INVALID,163.685,VALID,0,VALID,24.5406,VALID,357,VALID,0.140625,
2011-06-08, 01:12:04,VALID,1002.85,VALID,0,INVALID,163.708,VALID,0,VALID,24.5582,VALID,357,VALID,0.169141,
2011-06-08, 01:13:04,VALID,1002.83,VALID,0,INVALID,163.685,VALID,0,VALID,24.5582,VALID,357,VALID,0.129688,
2011-06-08, 01:14:04,VALID,1002.8,VALID,0,INVALID,163.701,VALID,0,VALID,24.5582,VALID,357,VALID,0,
2011-06-08, 01:15:04,VALID,1002.79,VALID,0,INVALID,163.693,VALID,0.100563,VALID,24.5388,VALID,357,VALID,0,
2011-06-08, 01:16:04,VALID,1002.75,VALID,0,INVALID,163.701,VALID,0,VALID,24.5388,VALID,357,VALID,0,
2011-06-08, 01:17:04,VALID,1002.73,VALID,0,INVALID,163.693,VALID,0,VALID,24.5582,VALID,357,VALID,0,
2011-06-08, 01:18:04,VALID,1002.7,VALID,0,INVALID,163.708,VALID,0,VALID,24.599,VALID,357,VALID,0,
2011-06-08, 01:19:04,VALID,1002.67,VALID,0,INVALID,163.678,VALID,0,VALID,24.5777,VALID,357,VALID,0.110937,
2011-06-08, 01:20:04,VALID,1002.63,VALID,0,INVALID,163.701,VALID,0,VALID,24.6185,VALID,357,VALID,0,
2011-06-08, 01:21:04,VALID,1002.58,VALID,0,INVALID,163.701,VALID,0,VALID,24.6574,VALID,357,VALID,0.221094,
2011-06-08, 01:22:04,VALID,1002.54,VALID,0,INVALID,163.678,VALID,0,VALID,24.5972,VALID,357,VALID,0.385547,
2011-06-08, 01:23:04,VALID,1002.52,VALID,0,INVALID,163.685,VALID,0,VALID,24.5777,VALID,357,VALID,0.434375,
2011-06-08, 01:24:04,VALID,1002.52,VALID,0,INVALID,163.701,VALID,0,VALID,24.5601,VALID,357,VALID,0.466406,
2011-06-08, 01:25:04,VALID,1002.49,VALID,0,INVALID,163.685,VALID,0,VALID,24.5406,VALID,357,VALID,0.315625,
2011-06-08, 01:26:04,VALID,1002.5,VALID,0,INVALID,163.693,VALID,0,VALID,24.5193,VALID,357,VALID,0.337109,
2011-06-08, 01:27:04,VALID,1002.51,VALID,0,INVALID,163.701,VALID,0,VALID,24.5388,VALID,357,VALID,0.430469,
2011-06-08, 01:28:04,VALID,1002.48,VALID,0,INVALID,163.701,VALID,0.100563,VALID,24.5388,VALID,357,VALID,0.278125,
2011-06-08, 01:29:04,VALID,1002.49,VALID,0,INVALID,163.716,VALID,0,VALID,24.5388,VALID,357,VALID,0.144141,
2011-06-08, 01:30:04,VALID,1002.48,VALID,0,INVALID,163.701,VALID,0,VALID,24.5193,VALID,357,VALID,0.343359,
2011-06-08, 01:31:04,VALID,1002.47,VALID,0,INVALID,163.693,VALID,0,VALID,24.5212,VALID,357,VALID,0.288672,
2011-06-08, 01:32:04,VALID,1002.48,VALID,0,INVALID,163.708,VALID,0,VALID,24.5193,VALID,357,VALID,0.421484,
2011-06-08, 01:33:04,VALID,1002.5,VALID,0,INVALID,163.708,VALID,0,VALID,24.5193,VALID,357,VALID,0.406641,
2011-06-08, 01:34:04,VALID,1002.49,VALID,0,INVALID,163.701,VALID,0,VALID,24.599,VALID,356,VALID,0.419531,
2011-06-08, 01:35:04,VALID,1002.49,VALID,0,INVALID,163.685,VALID,0,VALID,24.638,VALID,356,VALID,0.405078,
2011-06-08, 01:36:04,VALID,1002.5,VALID,0,INVALID,163.685,VALID,0,VALID,24.6769,VALID,355,VALID,0.2875,
2011-06-08, 01:37:04,VALID,1002.53,VALID,0,INVALID,163.678,VALID,0,VALID,24.6945,VALID,355,VALID,0.362109,
2011-06-08, 01:38:04,VALID,1002.55,VALID,0,INVALID,163.701,VALID,0.100563,VALID,24.6945,VALID,354,VALID,0.389062,
2011-06-08, 01:39:04,VALID,1002.53,VALID,0,INVALID,163.678,VALID,0,VALID,24.6945,VALID,343,VALID,0.458594,
2011-06-08, 01:40:04,VALID,1002.5,VALID,0,INVALID,163.708,VALID,0,VALID,24.6556,VALID,343,VALID,0.462109,
2011-06-08, 01:41:04,VALID,1002.47,VALID,0,INVALID,163.701,VALID,0,VALID,24.6769,VALID,343,VALID,0.465234,
2011-06-08, 01:42:04,VALID,1002.46,VALID,0,INVALID,163.693,VALID,0,VALID,24.6556,VALID,343,VALID,0.577344,
2011-06-08, 01:43:04,VALID,1002.45,VALID,0,INVALID,163.693,VALID,0,VALID,24.7159,VALID,343,VALID,0.460547,
2011-06-08, 01:44:04,VALID,1002.48,VALID,0,INVALID,163.708,VALID,0,VALID,24.6556,VALID,343,VALID,0.597266,
2011-06-08, 01:45:04,VALID,1002.46,VALID,0,INVALID,163.708,VALID,0,VALID,24.675,VALID,345,VALID,0.621875,
2011-06-08, 01:46:04,VALID,1002.47,VALID,0,INVALID,163.701,VALID,0,VALID,24.7159,VALID,345,VALID,0.641016,
2011-06-08, 01:47:04,VALID,1002.47,VALID,0,INVALID,163.678,VALID,0,VALID,24.7353,VALID,345,VALID,0.743359,
2011-06-08, 01:48:04,VALID,1002.45,VALID,0,INVALID,163.67,VALID,0,VALID,24.7937,VALID,350,VALID,0.657031,
2011-06-08, 01:49:04,VALID,1002.43,VALID,0,INVALID,163.647,VALID,0,VALID,24.8132,VALID,342,VALID,0.525391,
2011-06-08, 01:50:04,VALID,1002.39,VALID,0,INVALID,163.67,VALID,0,VALID,24.8308,VALID,347,VALID,0.576563,
2011-06-08, 01:51:04,VALID,1002.39,VALID,0,INVALID,163.662,VALID,0,VALID,24.9106,VALID,5,VALID,0.559766,
2011-06-08, 01:52:04,VALID,1002.39,VALID,0,INVALID,163.655,VALID,0,VALID,24.9495,VALID,360,VALID,0.512109,
2011-06-08, 01:53:04,VALID,1002.36,VALID,0,INVALID,163.685,VALID,0,VALID,24.969,VALID,357,VALID,0.473437,
2011-06-08, 01:54:04,VALID,1002.32,VALID,0,INVALID,163.655,VALID,0,VALID,24.9866,VALID,357,VALID,0.40625,
2011-06-08, 01:55:04,VALID,1002.33,VALID,0,INVALID,163.639,VALID,0,VALID,24.9885,VALID,357,VALID,0.630078,
2011-06-08, 01:56:04,VALID,1002.31,VALID,0,INVALID,163.678,VALID,0,VALID,25.0274,VALID,354,VALID,0.622266,
2011-06-08, 01:57:04,VALID,1002.29,VALID,0,INVALID,163.685,VALID,0,VALID,25.0255,VALID,354,VALID,0.286328,
2011-06-08, 01:58:04,VALID,1002.29,VALID,0,INVALID,163.662,VALID,0,VALID,25.0469,VALID,354,VALID,0.0328125,
2011-06-08, 01:59:04,VALID,1002.28,VALID,0,INVALID,163.662,VALID,0,VALID,25.0255,VALID,354,VALID,0.01875,
2011-06-08, 02:00:04,VALID,1002.26,VALID,0,INVALID,163.67,VALID,0,VALID,25.0469,VALID,283,VALID,0.529297,
2011-06-08, 02:01:04,VALID,1002.23,VALID,0,INVALID,163.655,VALID,0,VALID,25.0663,VALID,282,VALID,0,
2011-06-08, 02:02:04,VALID,1002.21,VALID,0,INVALID,163.655,VALID,0,VALID,25.0858,VALID,282,VALID,0.0101562,
2011-06-08, 02:03:04,VALID,1002.19,VALID,0,INVALID,163.647,VALID,0,VALID,25.0858,VALID,282,VALID,0.203516,
2011-06-08, 02:04:04,VALID,1002.22,VALID,0,INVALID,163.632,VALID,0,VALID,25.0644,VALID,282,VALID,0.0558594,
2011-06-08, 02:05:04,VALID,1002.21,VALID,0,INVALID,163.647,VALID,0,VALID,25.0663,VALID,300,VALID,0.185937,
2011-06-08, 02:06:04,VALID,1002.26,VALID,0,INVALID,163.632,VALID,0,VALID,25.0858,VALID,300,VALID,0,
2011-06-08, 02:07:04,VALID,1002.27,VALID,0,INVALID,163.639,VALID,0,VALID,25.0858,VALID,298,VALID,0,
2011-06-08, 02:08:04,VALID,1002.32,VALID,0,INVALID,163.67,VALID,0,VALID,25.0858,VALID,298,VALID,0.00703125,
2011-06-08, 02:09:04,VALID,1002.36,VALID,0,INVALID,163.662,VALID,0,VALID,25.0858,VALID,304,VALID,0.171875,
2011-06-08, 02:10:04,VALID,1002.38,VALID,0,INVALID,163.662,VALID,0,VALID,25.0663,VALID,298,VALID,0.226953,
2011-06-08, 02:11:04,VALID,1002.4,VALID,0,INVALID,163.632,VALID,0,VALID,25.0858,VALID,298,VALID,0.327344,
2011-06-08, 02:12:04,VALID,1002.38,VALID,0,INVALID,163.678,VALID,0,VALID,25.0644,VALID,341,VALID,0.611719,
2011-06-08, 02:13:04,VALID,1002.36,VALID,0,INVALID,163.662,VALID,0,VALID,25.0839,VALID,353,VALID,0.621875,
2011-06-08, 02:14:04,VALID,1002.34,VALID,0,INVALID,163.655,VALID,0,VALID,25.0858,VALID,354,VALID,0.517969,
2011-06-08, 02:15:04,VALID,1002.32,VALID,0,INVALID,163.655,VALID,0,VALID,25.0644,VALID,344,VALID,0.592969,
2011-06-08, 02:16:04,VALID,1002.28,VALID,0,INVALID,163.662,VALID,0,VALID,25.0644,VALID,338,VALID,0.349219,
2011-06-08, 02:17:04,VALID,1002.27,VALID,0,INVALID,163.655,VALID,0,VALID,25.0644,VALID,1,VALID,0.405078,
2011-06-08, 02:18:04,VALID,1002.26,VALID,0,INVALID,163.655,VALID,0,VALID,25.0839,VALID,359,VALID,0.464063,
2011-06-08, 02:19:04,VALID,1002.28,VALID,0,INVALID,163.655,VALID,0,VALID,25.0644,VALID,338,VALID,0.151953,
2011-06-08, 02:20:04,VALID,1002.31,VALID,0,INVALID,163.655,VALID,0.100563,VALID,25.0644,VALID,261,VALID,0.0894531,
2011-06-08, 02:21:04,VALID,1002.32,VALID,0,INVALID,163.662,VALID,0,VALID,25.045,VALID,261,VALID,0.302344,
2011-06-08, 02:22:04,VALID,1002.37,VALID,0,INVALID,163.655,VALID,0,VALID,25.0644,VALID,351,VALID,0.576172,
2011-06-08, 02:23:04,VALID,1002.41,VALID,0,INVALID,163.639,VALID,0,VALID,25.045,VALID,353,VALID,0.204688,
2011-06-08, 02:24:04,VALID,1002.43,VALID,0,INVALID,163.655,VALID,0,VALID,25.0663,VALID,353,VALID,0.0113281,
2011-06-08, 02:25:04,VALID,1002.47,VALID,0,INVALID,163.662,VALID,0,VALID,25.0663,VALID,353,VALID,0,
2011-06-08, 02:26:04,VALID,1002.46,VALID,0,INVALID,163.647,VALID,0,VALID,25.0469,VALID,353,VALID,0,
2011-06-08, 02:27:04,VALID,1002.46,VALID,0,INVALID,163.662,VALID,0,VALID,25.0274,VALID,353,VALID,0,
2011-06-08, 02:28:04,VALID,1002.45,VALID,0,INVALID,163.655,VALID,0,VALID,24.9866,VALID,353,VALID,0,
2011-06-08, 02:29:04,VALID,1002.42,VALID,0,INVALID,163.639,VALID,0,VALID,25.006,VALID,353,VALID,0.398828,
2011-06-08, 02:30:04,VALID,1002.43,VALID,0,INVALID,163.67,VALID,0,VALID,24.9866,VALID,353,VALID,0.308594,
2011-06-08, 02:31:04,VALID,1002.38,VALID,0,INVALID,163.67,VALID,0,VALID,24.9885,VALID,353,VALID,0.360156,
2011-06-08, 02:32:04,VALID,1002.4,VALID,0,INVALID,163.639,VALID,0,VALID,24.969,VALID,353,VALID,0.398438,
2011-06-08, 02:33:04,VALID,1002.4,VALID,0,INVALID,163.647,VALID,0,VALID,24.9495,VALID,353,VALID,0.366016,
2011-06-08, 02:34:04,VALID,1002.42,VALID,0,INVALID,163.67,VALID,0,VALID,24.9087,VALID,353,VALID,0.116016,
2011-06-08, 02:35:04,VALID,1002.44,VALID,0,INVALID,163.662,VALID,0,VALID,24.9106,VALID,353,VALID,0.271484,
2011-06-08, 02:36:04,VALID,1002.42,VALID,0,INVALID,163.678,VALID,0,VALID,24.8716,VALID,353,VALID,0,
2011-06-08, 02:37:04,VALID,1002.38,VALID,0,INVALID,163.67,VALID,0,VALID,24.8522,VALID,353,VALID,0,
2011-06-08, 02:38:04,VALID,1002.34,VALID,0,INVALID,163.67,VALID,0,VALID,24.8113,VALID,353,VALID,0,
2011-06-08, 02:39:04,VALID,1002.31,VALID,0,INVALID,163.662,VALID,0,VALID,24.7937,VALID,353,VALID,0,
2011-06-08, 02:40:04,VALID,1002.27,VALID,0,INVALID,163.67,VALID,0,VALID,24.7724,VALID,353,VALID,0,
2011-06-08, 02:41:04,VALID,1002.22,VALID,0,INVALID,163.685,VALID,0,VALID,24.7548,VALID,353,VALID,0,
2011-06-08, 02:42:04,VALID,1002.19,VALID,0,INVALID,163.701,VALID,0,VALID,24.7353,VALID,353,VALID,0,
2011-06-08, 02:43:04,VALID,1002.16,VALID,0,INVALID,163.685,VALID,0,VALID,24.7353,VALID,353,VALID,0,
2011-06-08, 02:44:04,VALID,1002.16,VALID,0,INVALID,163.685,VALID,0,VALID,24.7335,VALID,353,VALID,0,
2011-06-08, 02:45:04,VALID,1002.14,VALID,0,INVALID,163.693,VALID,0,VALID,24.7159,VALID,353,VALID,0,
2011-06-08, 02:46:04,VALID,1002.17,VALID,0,INVALID,163.685,VALID,0,VALID,24.6964,VALID,353,VALID,0,
2011-06-08, 02:47:04,VALID,1002.13,VALID,0,INVALID,163.731,VALID,0,VALID,24.6556,VALID,354,VALID,0,
2011-06-08, 02:48:04,VALID,1002.15,VALID,0,INVALID,163.693,VALID,0,VALID,24.6556,VALID,354,VALID,0,
2011-06-08, 02:49:04,VALID,1002.15,VALID,0,INVALID,163.708,VALID,0,VALID,24.6361,VALID,354,VALID,0,
2011-06-08, 02:50:04,VALID,1002.19,VALID,0,INVALID,163.678,VALID,0,VALID,24.6166,VALID,354,VALID,0,
2011-06-08, 02:51:04,VALID,1002.16,VALID,0,INVALID,163.708,VALID,0,VALID,24.638,VALID,354,VALID,0,
2011-06-08, 02:52:04,VALID,1002.16,VALID,0,INVALID,163.693,VALID,0,VALID,24.6185,VALID,354,VALID,0,
2011-06-08, 02:53:04,VALID,1002.14,VALID,0,INVALID,163.685,VALID,0,VALID,24.5777,VALID,354,VALID,0,
2011-06-08, 02:54:04,VALID,1002.13,VALID,0,INVALID,163.716,VALID,0,VALID,24.5972,VALID,354,VALID,0,
2011-06-08, 02:55:04,VALID,1002.13,VALID,0,INVALID,163.693,VALID,0,VALID,24.6185,VALID,354,VALID,0,
2011-06-08, 02:56:04,VALID,1002.1,VALID,0,INVALID,163.685,VALID,0,VALID,24.5972,VALID,354,VALID,0,
2011-06-08, 02:57:04,VALID,1002.12,VALID,0,INVALID,163.701,VALID,0,VALID,24.5972,VALID,354,VALID,0,
2011-06-08, 02:58:04,VALID,1002.1,VALID,0,INVALID,163.716,VALID,0,VALID,24.5777,VALID,354,VALID,0,
2011-06-08, 02:59:04,VALID,1002.13,VALID,0,INVALID,163.685,VALID,0,VALID,24.5796,VALID,354,VALID,0,
2011-06-08, 03:00:04,VALID,1002.15,VALID,0,INVALID,163.685,VALID,0,VALID,24.5174,VALID,354,VALID,0,
2011-06-08, 03:01:04,VALID,1002.18,VALID,0,INVALID,163.685,VALID,0,VALID,24.5388,VALID,354,VALID,0,
2011-06-08, 03:02:04,VALID,1002.19,VALID,0,INVALID,163.716,VALID,0,VALID,24.5193,VALID,354,VALID,0,
2011-06-08, 03:03:04,VALID,1002.16,VALID,0,INVALID,163.708,VALID,0.100563,VALID,24.4998,VALID,354,VALID,0,
2011-06-08, 03:04:04,VALID,1002.17,VALID,0,INVALID,163.716,VALID,0,VALID,24.5193,VALID,354,VALID,0,
2011-06-08, 03:05:04,VALID,1002.15,VALID,0,INVALID,163.716,VALID,0,VALID,24.5212,VALID,354,VALID,0,
2011-06-08, 03:06:04,VALID,1002.16,VALID,0,INVALID,163.685,VALID,0,VALID,24.5212,VALID,354,VALID,0,
2011-06-08, 03:07:04,VALID,1002.14,VALID,0,INVALID,163.708,VALID,0,VALID,24.5388,VALID,354,VALID,0,
2011-06-08, 03:08:04,VALID,1002.18,VALID,0,INVALID,163.701,VALID,0,VALID,24.5406,VALID,354,VALID,0,
2011-06-08, 03:09:04,VALID,1002.15,VALID,0,INVALID,163.716,VALID,0,VALID,24.4998,VALID,354,VALID,0,
2011-06-08, 03:10:04,VALID,1002.17,VALID,0,INVALID,163.708,VALID,0,VALID,24.4998,VALID,354,VALID,0,
2011-06-08, 03:11:04,VALID,1002.14,VALID,0,INVALID,163.67,VALID,0,VALID,24.4998,VALID,354,VALID,0,
2011-06-08, 03:12:04,VALID,1002.19,VALID,0,INVALID,163.708,VALID,0,VALID,24.5193,VALID,354,VALID,0,
2011-06-08, 03:13:04,VALID,1002.18,VALID,0,INVALID,163.731,VALID,0,VALID,24.5193,VALID,354,VALID,0,
2011-06-08, 03:14:04,VALID,1002.2,VALID,0,INVALID,163.716,VALID,0,VALID,24.5388,VALID,348,VALID,0,
2011-06-08, 03:15:04,VALID,1002.22,VALID,0,INVALID,163.708,VALID,0.100563,VALID,24.5796,VALID,342,VALID,0,
2011-06-08, 03:16:04,VALID,1002.25,VALID,0,INVALID,163.678,VALID,0,VALID,24.6361,VALID,360,VALID,0.514844,
2011-06-08, 03:17:04,VALID,1002.25,VALID,0,INVALID,163.67,VALID,0,VALID,24.6556,VALID,343,VALID,0.496484,
2011-06-08, 03:18:04,VALID,1002.27,VALID,0,INVALID,163.701,VALID,0,VALID,24.7159,VALID,343,VALID,0.416406,
2011-06-08, 03:19:04,VALID,1002.3,VALID,0,INVALID,163.693,VALID,0,VALID,24.714,VALID,343,VALID,0.00859375,
2011-06-08, 03:20:04,VALID,1002.32,VALID,0,INVALID,163.701,VALID,0,VALID,24.7335,VALID,343,VALID,0.00195313,
2011-06-08, 03:21:04,VALID,1002.34,VALID,0,INVALID,163.678,VALID,0,VALID,24.7335,VALID,343,VALID,0.0015625,
2011-06-08, 03:22:04,VALID,1002.36,VALID,0,INVALID,163.701,VALID,0,VALID,24.7529,VALID,343,VALID,0,
2011-06-08, 03:23:04,VALID,1002.34,VALID,0,INVALID,163.67,VALID,0,VALID,24.7743,VALID,343,VALID,0.101172,
2011-06-08, 03:24:04,VALID,1002.3,VALID,0,INVALID,163.678,VALID,0,VALID,24.7529,VALID,343,VALID,0.292969,
2011-06-08, 03:25:04,VALID,1002.29,VALID,0,INVALID,163.685,VALID,0,VALID,24.7724,VALID,343,VALID,0.5125,
2011-06-08, 03:26:04,VALID,1002.26,VALID,0,INVALID,163.678,VALID,0,VALID,24.7743,VALID,343,VALID,0.484766,
2011-06-08, 03:27:04,VALID,1002.26,VALID,0,INVALID,163.693,VALID,0,VALID,24.7335,VALID,343,VALID,0.432813,
2011-06-08, 03:28:04,VALID,1002.28,VALID,0,INVALID,163.685,VALID,0,VALID,24.7353,VALID,343,VALID,0.451562,
2011-06-08, 03:29:04,VALID,1002.29,VALID,0,INVALID,163.685,VALID,0,VALID,24.6945,VALID,343,VALID,0.367188,
2011-06-08, 03:30:04,VALID,1002.27,VALID,0,INVALID,163.708,VALID,0,VALID,24.6556,VALID,343,VALID,0.230469,
2011-06-08, 03:31:04,VALID,1002.24,VALID,0,INVALID,163.67,VALID,0,VALID,24.6574,VALID,343,VALID,0.00117188,
2011-06-08, 03:32:04,VALID,1002.24,VALID,0,INVALID,163.693,VALID,0.100563,VALID,24.6574,VALID,343,VALID,0.165234,
2011-06-08, 03:33:04,VALID,1002.19,VALID,0,INVALID,163.708,VALID,0,VALID,24.638,VALID,343,VALID,0.483203,
2011-06-08, 03:34:04,VALID,1002.19,VALID,0,INVALID,163.716,VALID,0,VALID,24.6574,VALID,349,VALID,0.518359,
2011-06-08, 03:35:04,VALID,1002.19,VALID,0,INVALID,163.708,VALID,0,VALID,24.6556,VALID,349,VALID,0.491016,
2011-06-08, 03:36:04,VALID,1002.15,VALID,0,INVALID,163.693,VALID,0,VALID,24.675,VALID,347,VALID,0.0960938,
2011-06-08, 03:37:04,VALID,1002.18,VALID,0,INVALID,163.708,VALID,0,VALID,24.714,VALID,2,VALID,0.691406,
2011-06-08, 03:38:04,VALID,1002.2,VALID,0,INVALID,163.708,VALID,0,VALID,24.7724,VALID,354,VALID,0.511719,
2011-06-08, 03:39:04,VALID,1002.22,VALID,0,INVALID,163.685,VALID,0,VALID,24.7919,VALID,354,VALID,0.559766,
2011-06-08, 03:40:04,VALID,1002.26,VALID,0,INVALID,163.647,VALID,0,VALID,24.7919,VALID,354,VALID,0.694531,
2011-06-08, 03:41:04,VALID,1002.25,VALID,0,INVALID,163.67,VALID,0,VALID,24.8113,VALID,357,VALID,0.573047,
2011-06-08, 03:42:04,VALID,1002.24,VALID,0,INVALID,163.678,VALID,0,VALID,24.8522,VALID,357,VALID,0.269141,
2011-06-08, 03:43:04,VALID,1002.23,VALID,0,INVALID,163.685,VALID,0,VALID,24.8716,VALID,357,VALID,0.550391,